User: anonymous   Login
Location: Bruderhein
(53.8035°N, 112.9265°W)
Time: 12:33:31
(UTC+00:00)
Language:

EO-79 - Orbit

View from above orbital plane
View from above orbital plane
View from above satellite
View from above satellite

Ground track
Ground track

The orbit data is extracted from the following two-line orbital elements,

1 40025U 14033R   23091.82528885  .00007617  00000-0  73642-3 0  9999
2 40025  97.9898  37.3009 0011127 177.7121 182.4151 14.93045230476744
Epoch (UTC): 01 April 2023 19:48:24
Eccentricity: 0.0011127
inclination: 97.9898°
perigee height: 581 km
apogee height: 596 km
right ascension of ascending node: 37.3009°
argument of perigee: 177.7121°
revolutions per day: 14.93045230
mean anomaly at epoch: 182.4151°
orbit number at epoch: 47674

The dashed part of the orbit path shows where the satellite is in the earth's shadow,  

DLR